• MPC Preparation (Info)

  • MPEC 2005-C02 : 2005 BS27

    The following Minor Planet Electronic Circular may be linked-to from your own Web pages, but must not otherwise be redistributed electronically.

    A form allowing access to any MPEC is at the bottom of this page.


    Read MPEC 2005-C01 Read MPEC 2005-C03


    M.P.E.C. 2005-C02                                Issued 2005 Feb. 1, 21:36 UT
    
         The Minor Planet Electronic Circulars contain information on unusual
             minor planets and routine data on comets.  They are published
       on behalf of Commission 20 of the International Astronomical Union by the
              Minor Planet Center, Smithsonian Astrophysical Observatory,
                              Cambridge, MA 02138, U.S.A.
    
                      Supported in part by the Brinson Foundation
                 Prepared using the Tamkin Foundation Computer Network
    
                                  MPC@CFA.HARVARD.EDU
              URL http://cfa-www.harvard.edu/iau/mpc.html  ISSN 1523-6714
    
                                       2005 BS27
    
    Observations:
         K05B27S* C2005 01 31.31664 09 53 07.94 +35 31 16.2          18.1   EC002704
         K05B27S  C2005 01 31.32915 09 53 01.40 +35 30 31.1          18.2   EC002704
         K05B27S  C2005 01 31.34167 09 52 54.84 +35 29 45.5          18.4   EC002704
         K05B27S  C2005 02 01.09861 09 46 43.52 +34 43 37.6          18.1 R EC002932
         K05B27S  C2005 02 01.11389 09 46 35.93 +34 42 44.0          18.2 R EC002932
         K05B27S  C2005 02 01.11806 09 46 33.86 +34 42 28.2          17.9 R EC002932
         K05B27S  C2005 02 01.19848 09 45 55.75 +34 37 39.2          17.5 R EC002651
         K05B27S  C2005 02 01.20078 09 45 54.63 +34 37 31.5          17.7 R EC002651
         K05B27S  C2005 02 01.20237 09 45 53.86 +34 37 25.8          17.6 R EC002651
         K05B27S  C2005 02 01.85213 09 40 47.70 +33 57 45.6          18.0 V EC002595
         K05B27S  C2005 02 01.85998 09 40 44.07 +33 57 17.3                 EC002595
         K05B27S  C2005 02 01.88189 09 40 33.69 +33 55 59.1                 EC002595
    
    Observer details:
    595 Farra d'Isonzo.  Observers M. Spolaor, E. Pettarin, F. Piani, G. Lombardi.
        Measurer M. Spolaor.  0.40-m f/4.5 reflector + CCD.
    651 Grasslands Observatory, Tucson.  Observer J. E. McGaha.  0.62-m f/5.1
        Newtonian reflector + CCD.
    704 Lincoln Laboratory ETS, New Mexico.  Observers M. Blythe, F. Shelly,
        M. Bezpalko, R. Huber, L. Manguso, D. Torres, R. Krack.  Measurers
        J. Stuart, R. Sayer, J. Evans, J. Kommers.  1.0-m f/2.15 reflector + CCD.
    932 John J. McCarthy Obs., New Milford.  Observers W. Cloutier, S. Riley.
        Measurer M. Robson.  0.4-m f/7.3 Schmidt-Cassegrain + CCD.
    
    Orbital elements:
    2005 BS27
    Epoch 2005 Jan. 30.0 TT = JDT 2453400.5                 MPC
    M  73.84785              (2000.0)            P               Q
    n   0.83349507     Peri.   48.74052     +0.95577626     -0.24051962
    a   1.1182374      Node   324.20472     +0.09508076     +0.79726670
    e   0.3870164      Incl.   16.81919     +0.27830089     +0.55363897
    P   1.18           H   20.3           G   0.15
    From 12 observations 2005 Jan. 31-Feb. 1.
    
    Ephemeris:
    2005 BS27                a,e,i = 1.12, 0.39, 17                  q = 0.6855
    Date    TT    R. A. (2000) Decl.     Delta      r     Elong.  Phase     V
    2005 01 30    10 04.63   +36 50.2    0.193    1.163   154.8    21.1    18.1
    2005 02 09    08 56.75   +27 03.7    0.241    1.221   165.4    11.8    18.4
    2005 02 19    08 23.10   +19 38.6    0.312    1.275   153.0    20.6    19.3
    2005 03 01    08 08.75   +14 47.0    0.400    1.324   140.4    28.5    20.2
    2005 03 11    08 05.26   +11 35.6    0.499    1.368   130.0    33.8    20.9
    2005 03 21    08 08.44   +09 22.1    0.604    1.408   121.2    37.2    21.5
    2005 03 31    08 15.91   +07 40.3    0.715    1.443   113.6    39.4    21.9
    
    Timothy B. Spahr             (C) Copyright 2005 MPC           M.P.E.C. 2005-C02
    

    Read MPEC 2005-C01 Read MPEC 2005-C03


    MPEC number:

    Enter an MPEC number in one of the following forms:

    • 1997-B01 (the full form)
    • J97B01 (the packed version of the full form)
    • B01 (the abbreviated form)